Home   Weather   Bielsko-Biała   Past weeks

Flag for Poland Past Weather in Bielsko-Biała, Poland — Yesterday and Last 2 Weeks

Now
62 °F

Overcast.


Feels Like: 62 °F
Forecast: 40 / 64 °F
Wind: 2 mph from East

Location: Katowice

Current Time: Sep 25, 2016 at 2:22:08 PM

Latest Report: Sep 25, 2016 at 1:00 PM


Visibility: 13 mi

Pressure: 30.23 "Hg

Humidity: 52%

Dew Point: 45 °F

Location of Bielsko-BiałaLocation

Past Weather in Bielsko-Biała — Graph

°F

Bielsko-Biała Temperature Yesterday

Maximum temperature yesterday: 65 °F (at 4:00 PM)
Minimum temperature yesterday: 43 °F (at 5:00 AM)
Average temperature yesterday: 53 °F

High & Low Weather Summary for the Past Weeks

 TemperatureHumidityPressure
High82 °F (Sep 11, 4:00 PM)97% (Sep 25, 9:00 AM)30.32 "Hg (Sep 25, 9:00 AM)
Low38 °F (Sep 22, 5:00 AM)31% (Sep 14, 5:00 PM)29.84 "Hg (Sep 17, 9:00 AM)
Average59 °F79%30.08 "Hg
* Reported Sep 10 1:00 PM — Sep 25 1:00 PM, Bielsko-Biała, Weather by CustomWeather, © 2016

Note: Actual official high and low records may vary slightly from our data, if they occured in-between our weather recording intervals... More about our weather records

Advertising

Bielsko-Biała Weather History for the Previous 24 Hours

Scroll right to see more
 ConditionsComfort  
Time TempWeatherWind HumidityBarometerVisibility
1:00 PM
Sun, Sep 25
62 °FOvercast.2 mph52%30.23 "Hg12 mi
12:00 PM62 °FPartly sunny.3 mph56%30.25 "Hg12 mi
11:00 AM60 °FOvercast.2 mph66%30.26 "Hg9 mi
10:00 AM55 °FPartly sunny.2 mph79%30.28 "Hg6 mi
9:00 AM49 °FFog.1 mph97%30.30 "Hg6 mi
8:00 AM42 °FFog.No wind96%30.31 "Hg0 mi
7:00 AM40 °FFog.No wind96%30.31 "Hg0 mi
6:00 AM42 °FFog.1 mph96%30.30 "Hg0 mi
5:00 AM43 °FFog.No wind96%30.30 "Hg0 mi
4:00 AM44 °FFog.1 mph96%30.30 "Hg0 mi
3:00 AM43 °FFog.1 mph96%30.31 "Hg0 mi
2:00 AM44 °FFog.1 mph95%30.31 "Hg1 mi
1:00 AM45 °FFog.No wind95%30.31 "Hg3 mi
12:00 AM46 °FFog.1 mph95%30.31 "Hg3 mi
11:00 PM
Sat, Sep 24
47 °FFog.1 mph94%30.32 "Hg4 mi
10:00 PM49 °FFog.1 mph93%30.31 "Hg4 mi
9:00 PM51 °FFog.1 mph93%30.31 "Hg6 mi
8:00 PM53 °FPassing clouds.1 mph86%30.29 "Hg6 mi
7:00 PM60 °FPassing clouds.1 mph73%30.28 "Hg9 mi
6:00 PM62 °FOvercast.1 mph71%30.26 "Hg6 mi
5:00 PM64 °FOvercast.2 mph66%30.26 "Hg6 mi
4:00 PM65 °FOvercast.2 mph64%30.26 "Hg9 mi
3:00 PM64 °FOvercast.5 mph62%30.27 "Hg9 mi
2:00 PM63 °FOvercast.3 mph65%30.28 "Hg9 mi
Weather by CustomWeather, © 2016

See weather overviewHow to use our weather pages